• In Kazakhstan
  • List of Countries
  • For 7 days
  • Water Temperature
  • Satellite Maps
  • Weather Map
  • News
  • Weather Widgets
  • user-avatar
    Login

    Hourly Weather Ali Bayramli

    Today, 21 October, Saturday

    Time Temperature Precipitation Wind Pressure Humidity
    00:00 +17°C° 0 mm 2 mps 762 mmHg 79%
    01:00 +17°C° 0 mm 2 mps 762 mmHg 80%
    02:00 +16°C° 0 mm 1 mps 762 mmHg 81%
    03:00 +16°C° 0 mm 1 mps 761 mmHg 83%
    04:00 +16°C° 0 mm 1 mps 761 mmHg 84%
    05:00 +15°C° 0 mm 1 mps 761 mmHg 84%
    06:00 +15°C° 0 mm 1 mps 761 mmHg 85%
    07:00 +16°C° 0 mm 1 mps 761 mmHg 79%
    08:00 +19°C° 0 mm 1 mps 761 mmHg 74%
    09:00 +20°C° 0 mm 1 mps 761 mmHg 68%
    10:00 +21°C° 0 mm 1 mps 761 mmHg 64%
    11:00 +22°C° 0 mm 1 mps 761 mmHg 60%
    12:00 +23°C° 0 mm 2 mps 760 mmHg 56%
    13:00 +23°C° 0 mm 2 mps 760 mmHg 55%
    14:00 +24°C° 0 mm 2 mps 760 mmHg 54%
    15:00 +24°C° 0 mm 3 mps 759 mmHg 53%
    16:00 +22°C° 0 mm 3 mps 759 mmHg 58%
    17:00 +21°C° 0 mm 3 mps 759 mmHg 63%
    18:00 +20°C° 0 mm 3 mps 759 mmHg 68%
    19:00 +20°C° 0 mm 3 mps 759 mmHg 72%
    20:00 +19°C° 0 mm 3 mps 759 mmHg 75%
    21:00 +19°C° 0 mm 2 mps 759 mmHg 78%
    22:00 +18°C° 0 mm 2 mps 759 mmHg 80%
    23:00 +18°C° 0 mm 2 mps 759 mmHg 82%

    Tomorrow, 22 October, Sunday

    Time Temperature Precipitation Wind Pressure Humidity
    00:00 +19°C° 0 mm 1 mps 759 mmHg 84%
    01:00 +18°C° 0 mm 1 mps 758 mmHg 85%
    02:00 +18°C° 0 mm 1 mps 758 mmHg 86%
    03:00 +18°C° 0 mm 1 mps 758 mmHg 87%
    04:00 +18°C° 0 mm 1 mps 758 mmHg 87%
    05:00 +16°C° 0 mm 1 mps 758 mmHg 88%
    06:00 +16°C° 0 mm 1 mps 758 mmHg 88%
    07:00 +17°C° 0 mm 2 mps 758 mmHg 83%
    08:00 +19°C° 0 mm 2 mps 758 mmHg 78%
    09:00 +20°C° 0 mm 3 mps 758 mmHg 72%
    10:00 +21°C° 0 mm 3 mps 757 mmHg 64%
    11:00 +22°C° 0 mm 3 mps 757 mmHg 56%
    12:00 +23°C° 0 mm 4 mps 756 mmHg 48%
    13:00 +23°C° 0 mm 4 mps 756 mmHg 44%
    14:00 +23°C° 0 mm 4 mps 755 mmHg 41%
    15:00 +25°C° 0 mm 4 mps 755 mmHg 37%
    16:00 +23°C° 0 mm 4 mps 755 mmHg 41%
    17:00 +22°C° 0 mm 4 mps 755 mmHg 44%
    18:00 +21°C° 0 mm 4 mps 755 mmHg 48%
    19:00 +20°C° 0 mm 4 mps 755 mmHg 53%
    20:00 +19°C° 0 mm 4 mps 755 mmHg 58%
    21:00 +19°C° 0 mm 4 mps 755 mmHg 63%
    22:00 +18°C° 0 mm 4 mps 755 mmHg 59%
    23:00 +18°C° 0 mm 4 mps 755 mmHg 55%

    Day after tomorrow, 23 October, Monday

    Time Temperature Precipitation Wind Pressure Humidity
    00:00 +18°C° 0 mm 4 mps 755 mmHg 51%
    01:00 +16°C° 0 mm 5 mps 755 mmHg 47%
    02:00 +16°C° 0 mm 5 mps 755 mmHg 43%
    03:00 +16°C° 0 mm 6 mps 755 mmHg 39%
    04:00 +16°C° 0 mm 6 mps 755 mmHg 38%
    05:00 +16°C° 0 mm 6 mps 756 mmHg 37%
    06:00 +16°C° 0 mm 6 mps 756 mmHg 36%
    07:00 +17°C° 0 mm 6 mps 757 mmHg 36%
    08:00 +19°C° 0 mm 5 mps 758 mmHg 36%
    09:00 +21°C° 0 mm 5 mps 759 mmHg 36%
    10:00 +21°C° 0 mm 5 mps 759 mmHg 36%
    11:00 +22°C° 0 mm 4 mps 759 mmHg 36%
    12:00 +23°C° 0 mm 4 mps 759 mmHg 36%
    13:00 +23°C° 0 mm 5 mps 760 mmHg 40%
    14:00 +22°C° 0 mm 6 mps 760 mmHg 43%
    15:00 +22°C° 0 mm 7 mps 760 mmHg 47%
    16:00 +21°C° 0 mm 7 mps 761 mmHg 53%
    17:00 +18°C° 0 mm 7 mps 761 mmHg 60%
    18:00 +17°C° 0 mm 7 mps 762 mmHg 67%
    19:00 +17°C° 0 mm 7 mps 762 mmHg 70%
    20:00 +16°C° 0 mm 7 mps 763 mmHg 72%
    21:00 +16°C° 0 mm 6 mps 763 mmHg 75%
    22:00 +15°C° 0 mm 6 mps 763 mmHg 76%
    23:00 +15°C° 0 mm 5 mps 762 mmHg 77%

    24 October, Tuesday

    Time Temperature Precipitation Wind Pressure Humidity
    00:00 +15°C° 0 mm 5 mps 762 mmHg 78%
    01:00 +15°C° 0 mm 5 mps 762 mmHg 77%
    02:00 +15°C° 0 mm 4 mps 762 mmHg 77%
    03:00 +15°C° 0 mm 4 mps 762 mmHg 76%
    04:00 +15°C° 0 mm 4 mps 762 mmHg 76%
    05:00 +16°C° 0 mm 3 mps 762 mmHg 76%
    06:00 +16°C° 0 mm 3 mps 762 mmHg 75%
    07:00 +16°C° 0 mm 3 mps 762 mmHg 75%
    08:00 +17°C° 0 mm 3 mps 762 mmHg 75%
    09:00 +17°C° 0 mm 2 mps 763 mmHg 75%
    10:00 +17°C° 0 mm 2 mps 762 mmHg 74%
    11:00 +18°C° 0 mm 2 mps 762 mmHg 73%
    12:00 +18°C° 0 mm 2 mps 762 mmHg 71%
    13:00 +19°C° 0 mm 2 mps 762 mmHg 70%
    14:00 +19°C° 0 mm 2 mps 761 mmHg 69%
    15:00 +19°C° 0 mm 2 mps 761 mmHg 68%
    16:00 +19°C° 0 mm 2 mps 762 mmHg 72%
    17:00 +18°C° 0 mm 2 mps 762 mmHg 75%
    18:00 +18°C° 0 mm 2 mps 762 mmHg 78%
    19:00 +17°C° 0 mm 2 mps 763 mmHg 80%
    20:00 +17°C° 0 mm 2 mps 763 mmHg 82%
    21:00 +17°C° 0 mm 2 mps 763 mmHg 83%
    22:00 +17°C° 0 mm 2 mps 763 mmHg 84%
    23:00 +16°C° 0 mm 2 mps 763 mmHg 84%

    25 October, Wednesday

    Time Temperature Precipitation Wind Pressure Humidity
    00:00 +16°C° 0 mm 2 mps 763 mmHg 85%
    01:00 +16°C° 0 mm 2 mps 763 mmHg 85%
    02:00 +16°C° 0 mm 2 mps 763 mmHg 85%
    03:00 +16°C° 0 mm 2 mps 763 mmHg 85%
    04:00 +16°C° 0 mm 1 mps 763 mmHg 85%
    05:00 +16°C° 0 mm 1 mps 764 mmHg 85%
    06:00 +15°C° 0 mm 1 mps 764 mmHg 85%
    07:00 +16°C° 0 mm 1 mps 764 mmHg 82%
    08:00 +18°C° 0 mm 1 mps 764 mmHg 78%
    09:00 +19°C° 0 mm 1 mps 765 mmHg 74%
    10:00 +20°C° 0 mm 1 mps 764 mmHg 71%
    11:00 +20°C° 0 mm 1 mps 764 mmHg 68%
    12:00 +21°C° 0 mm 1 mps 764 mmHg 64%
    13:00 +21°C° 0 mm 1 mps 763 mmHg 63%
    14:00 +21°C° 0 mm 2 mps 763 mmHg 61%
    15:00 +21°C° 0 mm 2 mps 763 mmHg 60%
    16:00 +20°C° 0 mm 3 mps 764 mmHg 64%
    17:00 +19°C° 0 mm 3 mps 764 mmHg 68%
    18:00 +19°C° 0 mm 4 mps 764 mmHg 73%
    19:00 +18°C° 0 mm 4 mps 765 mmHg 74%
    20:00 +18°C° 0 mm 4 mps 765 mmHg 76%
    21:00 +17°C° 0 mm 4 mps 765 mmHg 77%
    22:00 +17°C° 0 mm 4 mps 765 mmHg 78%
    23:00 +16°C° 0 mm 3 mps 765 mmHg 78%

    26 October, Thursday

    Time Temperature Precipitation Wind Pressure Humidity
    00:00 +16°C° 0 mm 3 mps 765 mmHg 78%
    01:00 +16°C° 0 mm 3 mps 765 mmHg 79%
    02:00 +16°C° 0 mm 2 mps 765 mmHg 79%
    03:00 +15°C° 0 mm 2 mps 765 mmHg 80%
    04:00 +15°C° 0 mm 1 mps 765 mmHg 81%
    05:00 +15°C° 0 mm 1 mps 765 mmHg 82%
    06:00 +14°C° 0 mm 1 mps 765 mmHg 83%
    07:00 +16°C° 0 mm 1 mps 765 mmHg 78%
    08:00 +18°C° 0 mm 1 mps 765 mmHg 74%
    09:00 +19°C° 0 mm 1 mps 765 mmHg 69%
    10:00 +20°C° 0 mm 1 mps 764 mmHg 65%
    11:00 +20°C° 0 mm 1 mps 764 mmHg 61%
    12:00 +21°C° 0 mm 1 mps 763 mmHg 57%
    13:00 +21°C° 0 mm 2 mps 763 mmHg 57%
    14:00 +21°C° 0 mm 2 mps 762 mmHg 56%
    15:00 +21°C° 0 mm 2 mps 762 mmHg 55%
    16:00 +21°C° 0 mm 2 mps 762 mmHg 59%
    17:00 +20°C° 0 mm 2 mps 762 mmHg 63%
    18:00 +19°C° 0 mm 2 mps 762 mmHg 67%
    19:00 +18°C° 0 mm 2 mps 762 mmHg 70%
    20:00 +18°C° 0 mm 2 mps 762 mmHg 74%
    21:00 +19°C° 0 mm 1 mps 762 mmHg 77%
    22:00 +18°C° 0 mm 1 mps 761 mmHg 79%
    23:00 +18°C° 0 mm 1 mps 761 mmHg 81%
    Show more